Location: Westminster
(33.3626°N, 96.4619°W)
Time: 21:26:05
(UTC+00:00)

SJ 16-02 - Pass Details

Date: 03 December 2021
Orbit: 605 x 616 km, 75.0° (Epoch: 26 January)

Event Time Altitude Azimuth Distance (km) Brightness Sun altitude
Rises 12:24:26 0° 194° (SSW) 2,851 4.9 -10.3°
Reaches altitude 10° 12:26:39 10° 194° (SSW) 1,949 4.0 -9.8°
Maximum altitude 12:31:00 88° 109° (ESE) 611 1.3 -9.0°
Drops below altitude 10° 12:35:23 10° 16° (NNE) 1,957 3.9 -8.1°
Sets 12:37:37 0° 16° (NNE) 2,863 4.7 -7.7°
